EW9732 Weather Reports


Display with metric or nautical units.
time (UTC)temp
F
wind
direction
speed
MPH
gust
MPH
rain 1hr
in
rain 24hr
in
rain mn
in
humidity
%
barometer
mb
20220517011531 77 204 0.0 5.0 0.00 0.00 0.00 23 1002.3
20220517010020 76 141 0.0 4.0 0.00 0.00 0.00 24 1002.6
20220517004510 76 133 1.0 7.0 0.00 0.00 0.00 24 1002.7
20220517003009 76 135 3.0 7.0 0.00 0.00 0.00 23 1002.9
20220517001510 76 148 3.0 6.0 0.00 0.00 0.00 24 1002.9
20220517000011 75 110 3.0 10.0 0.00 0.00 0.00 24 1003.3
20220516234510 75 180 2.0 9.0 0.00 0.00 0.00 25 1003.6
20220516233004 75 108 4.0 12.0 0.00 0.00 0.00 24 1003.4
20220516231502 76 111 5.0 17.0 0.00 0.00 0.00 22 1003.7
20220516230002 76 250 6.0 13.0 0.00 0.00 0.00 22 1003.7
20220516224500 76 148 5.0 11.0 0.00 0.00 0.00 21 1003.7
20220516223100 75 140 3.0 14.0 0.00 0.00 0.00 23 1003.8
20220516221601 75 216 5.0 19.0 0.00 0.00 0.00 22 1004.6
20220516220058 77 253 5.0 13.0 0.00 0.00 0.00 20 1004.9
20220516214557 78 288 9.0 21.0 0.00 0.00 0.00 17 1004.6
20220516213058 79 262 7.0 15.0 0.00 0.00 0.00 15 1004.3
20220516211555 79 264 4.0 13.0 0.00 0.00 0.00 16 1004.2
20220516210054 78 262 10.0 21.0 0.00 0.00 0.00 16 1004.2
20220516204554 79 296 18.0 40.0 0.00 0.00 0.00 16 1004.4
20220516203108 81 306 0.0 4.0 0.00 0.00 0.00 15 1004.3
20220516201613 81 234 1.0 12.0 0.00 0.00 0.00 15 1004.3
20220516200051 81 219 1.0 8.0 0.00 0.00 0.00 13 1004.2
20220516194600 81 27 1.0 6.0 0.00 0.00 0.00 14 1004.5
20220516193049 82 139 3.0 8.0 0.00 0.00 0.00 14 1004.8
20220516191558 83 27 0.0 4.0 0.00 0.00 0.00 14 1004.7
20220516190046 83 29 0.0 7.0 0.00 0.00 0.00 14 1004.8
20220516184555 84 85 1.0 5.0 0.00 0.00 0.00 16 1005.0
20220516183041 83 134 0.0 6.0 0.00 0.00 0.00 18 1005.4
20220516181537 82 4 2.0 6.0 0.00 0.00 0.00 20 1005.6
20220516180037 82 116 1.0 6.0 0.00 0.00 0.00 20 1005.8
20220516174534 80 144 0.0 6.0 0.00 0.00 0.00 21 1006.1
20220516173028 79 295 0.0 3.0 0.00 0.00 0.00 23 1006.5
20220516171528 79 131 0.0 3.0 0.00 0.00 0.00 22 1006.8
20220516170026 78 108 0.0 2.0 0.00 0.00 0.00 23 1007.0
20220516164522 76 216 0.0 3.0 0.00 0.00 0.00 25 1007.3
20220516163028 75 10 0.0 3.0 0.00 0.00 0.00 28 1007.6
20220516161510 72 146 0.0 2.0 0.00 0.00 0.00 30 1008.0
20220516160007 70 151 1.0 5.0 0.00 0.00 0.00 32 1008.1
20220516154503 68 219 0.0 3.0 0.00 0.00 0.00 36 1008.5
20220516153059 66 280 0.0 4.0 0.00 0.00 0.00 38 1008.7
20220516151607 65 210 1.0 4.0 0.00 0.00 0.00 38 1008.9
20220516150057 64 198 0.0 0.0 0.00 0.00 0.00 42 1009.2
20220516144552 63 212 0.0 0.0 0.00 0.00 0.00 41 1009.3
20220516143053 63 275 0.0 0.0 0.00 0.00 0.00 41 1009.4
20220516141553 62 172 0.0 1.0 0.00 0.00 0.00 44 1009.4
20220516140051 58 217 0.0 0.0 0.00 0.00 0.00 53 1009.4
20220516134543 56 217 0.0 0.0 0.00 0.00 0.00 58 1009.8
20220516133054 57 230 0.0 0.0 0.00 0.00 0.00 56 1009.8
20220516131547 55 128 0.0 0.0 0.00 0.00 0.00 60 1009.8
20220516130040 52 238 0.0 0.0 0.00 0.00 0.00 66 1009.9
20220516124540 49 98 0.0 0.0 0.00 0.00 0.00 73 1009.9
20220516123052 48 98 0.0 0.0 0.00 0.00 0.00 76 1010.0
20220516121540 46 98 0.0 0.0 0.00 0.00 0.00 78 1010.0
20220516120049 46 98 0.0 0.0 0.00 0.00 0.00 78 1009.9
20220516114536 47 98 0.0 0.0 0.00 0.00 0.00 76 1010.0
20220516113035 47 98 0.0 0.0 0.00 0.00 0.00 75 1009.8
20220516111533 48 98 0.0 0.0 0.00 0.00 0.00 74 1009.8
20220516110042 48 98 0.0 0.0 0.00 0.00 0.00 74 1009.7
20220516104533 48 98 0.0 0.0 0.00 0.00 0.00 73 1010.0
20220516103034 48 98 0.0 0.0 0.00 0.00 0.00 73 1010.0
20220516101527 49 98 0.0 0.0 0.00 0.00 0.00 72 1009.8
20220516100029 49 98 0.0 0.0 0.00 0.00 0.00 72 1009.8
20220516094536 49 98 0.0 0.0 0.00 0.00 0.00 71 1009.8
20220516093034 50 98 0.0 0.0 0.00 0.00 0.00 69 1009.7
20220516091520 50 98 0.0 0.0 0.00 0.00 0.00 68 1010.0
20220516090019 50 98 0.0 0.0 0.00 0.00 0.00 68 1010.1
20220516084517 51 98 0.0 0.0 0.00 0.00 0.00 67 1010.2
20220516083022 51 137 0.0 0.0 0.00 0.00 0.00 65 1010.4
20220516081510 52 139 0.0 0.0 0.00 0.00 0.00 63 1010.7
20220516080008 53 139 0.0 0.0 0.00 0.00 0.00 61 1010.8
20220516074506 53 139 0.0 0.0 0.00 0.00 0.00 60 1010.7
20220516073002 54 190 0.0 0.0 0.00 0.00 0.00 58 1011.2
20220516071624 55 166 0.0 0.0 0.00 0.00 0.00 56 1011.5
20220516070100 55 137 0.0 0.0 0.00 0.00 0.00 55 1011.8
20220516064556 56 137 0.0 0.0 0.00 0.00 0.00 54 1011.7
20220516063153 57 137 0.0 0.0 0.00 0.00 0.00 52 1011.9
20220516061604 57 137 0.0 0.0 0.00 0.00 0.00 49 1011.9
20220516060053 59 137 0.0 0.0 0.00 0.00 0.00 47 1011.9
20220516054545 60 137 0.0 0.0 0.00 0.00 0.00 43 1011.9
20220516053048 61 137 0.0 0.0 0.00 0.00 0.00 41 1012.1
20220516051601 62 127 0.0 1.0 0.00 0.00 0.00 39 1012.3
20220516050044 63 221 0.0 0.0 0.00 0.00 0.00 38 1012.2
20220516044543 63 217 0.0 1.0 0.00 0.00 0.00 36 1012.1
20220516043043 64 286 0.0 3.0 0.00 0.00 0.00 34 1012.0
20220516041542 65 269 0.0 3.0 0.00 0.00 0.00 34 1011.8
20220516040042 65 115 0.0 5.0 0.00 0.00 0.00 34 1011.4
20220516034542 65 293 1.0 3.0 0.00 0.00 0.00 34 1011.4
20220516033045 66 20 0.0 4.0 0.00 0.00 0.00 33 1011.1
20220516031540 67 29 0.0 3.0 0.00 0.00 0.00 32 1010.9
20220516030040 68 32 0.0 1.0 0.00 0.00 0.00 31 1010.6
20220516024551 69 46 1.0 5.0 0.00 0.00 0.00 30 1010.6
20220516023044 69 77 0.0 5.0 0.00 0.00 0.00 30 1010.5
20220516021537 70 38 0.0 3.0 0.00 0.00 0.00 29 1010.6
20220516020046 72 68 0.0 5.0 0.00 0.00 0.00 28 1010.5
20220516014536 73 68 0.0 4.0 0.00 0.00 0.00 27 1010.3
20220516013037 74 61 0.0 10.0 0.00 0.00 0.00 27 1010.2